[[{"header":{"parameterUnit":"m.s-1","parameterCategory":1,"la1":30.2991,"la2":30.254,"lo1":-89.0895,"lo2":-89.0444,"dy":0.0017,"dx":0.0017,"nx":28,"ny":28,"refTime":"2024-05-09T09:00:00:Z","depth":0,"parameterNumber":2,"parameterNumberName":"U-component_of_WINDS"},"data":[0,0,0,0,0,0,0,0,0,0,0,0,0,0,0,0,0,0,0,0,0,0,0,0,0,0,0,0,0,0,0,0,0,0,0,0,0,0,0,0,0,0,0,0,0,0,0,0,0,0,0,0,0,0,0,0,0,0,0.8284,0.8284,0,0.8267,0.8267,0.8267,0.8255,0.8255,0.8255,0.8255,0.8237,0.8237,0.8237,0,0,0,0,0,0,0,0,0,0,0,0,0,0.8303,0.8303,0.8284,0.8284,0.8283,0.8267,0.8267,0.8267,0.8255,0.8255,0.8255,0.8255,0.8238,0.8237,0.8237,0,0,0,0,0,0,0,0,0,0,0,0,0,0.8292,0.8303,0.8284,0.8276,0.8275,0.8267,0.8267,0.8267,0.8255,0.8255,0.8255,0.8255,0.8238,0.8237,0.8237,0.8236,0,0,0.8235,0.8235,0,0,0,0,0,0,0,0,0.8292,0.8291,0.8277,0.8276,0.8275,0.8263,0.8267,0.8256,0.8255,0.8263,0.8255,0.8255,0.8246,0.8245,0.8242,0.8235,0.8234,0.8235,0.8234,0.8234,0.8234,0,0,0,0,0,0,0,0.8293,0.8292,0.8277,0.8277,0.8276,0.8272,0.827,0.8265,0.8255,0.8262,0.8261,0.826,0.8246,0.8243,0.8241,0.8234,0.8235,0.8234,0.8234,0.8234,0.8223,0.8223,0,0,0,0,0,0,0.8295,0.8292,0.8278,0.8277,0.8284,0.8272,0.827,0.8267,0.8255,0.8253,0.826,0.8259,0.8244,0.8242,0.8241,0.8238,0.8234,0.8234,0.8233,0.8223,0.8223,0.8223,0,0,0,0,0,0,0.8296,0.8294,0.8278,0.8284,0.8282,0.8272,0.8269,0.8267,0.8264,0.8254,0.8252,0.8259,0.8243,0.8242,0.8237,0.8237,0.8233,0.8233,0.8223,0.8223,0.8223,0.8232,0,0,0,0,0,0,0.8296,0.8294,0.8295,0.8284,0.8282,0.8275,0.8269,0.8267,0.8263,0.8262,0.8252,0.825,0.8243,0.8238,0.8236,0.8236,0.8232,0.8223,0.8223,0.8223,0.8232,0.8233,0.8233,0,0,0,0,0,0.8297,0.8298,0.8295,0.8293,0.8282,0.8275,0.8274,0.8266,0.8263,0.8263,0.8256,0.825,0.8237,0.8237,0.8235,0.8235,0.8223,0.8223,0.8223,0.8232,0.8233,0.8233,0,0,0,0,0,0,0.8309,0.8297,0.8293,0.8291,0.8284,0.8273,0.8273,0.8268,0.8262,0.8261,0.8251,0.8249,0.8245,0.8239,0.824,0.8233,0.8229,0.8229,0.8236,0.8237,0.8238,0.8239,0.8232,0,0,0,0,0,0.8311,0.8307,0.8297,0.8296,0.8293,0.8283,0.828,0.8275,0.8267,0.8265,0.8257,0.825,0.8244,0.824,0.8234,0.8231,0.8228,0.823,0.8231,0.8231,0.8231,0.8227,0.8228,0.8223,0.8223,0.8223,0,0,0.8316,0.8309,0.8307,0.8298,0.8292,0.8288,0.8281,0.8277,0.8273,0.8264,0.8258,0.8253,0.8244,0.8239,0.8237,0.8235,0.8231,0.8231,0.8232,0.8232,0.8228,0.8228,0.8228,0.8224,0.8224,0.8223,0,0,0.8322,0.8316,0.8314,0.8308,0.83,0.8293,0.8293,0.8283,0.8278,0.8273,0.8265,0.826,0.8251,0.8244,0.824,0.8242,0.8236,0.824,0.8244,0.824,0.824,0.8241,0.824,0.824,0.824,0.824,0.824,0,0.8328,0.8322,0.8314,0.831,0.8305,0.8296,0.8293,0.8288,0.8278,0.8275,0.8273,0.8259,0.8253,0.8246,0.8246,0.8243,0.8241,0.8241,0.8241,0.8241,0.8241,0.8241,0.8241,0.824,0.824,0.824,0.824,0,0.833,0.8325,0.8325,0.8315,0.831,0.8307,0.8297,0.8294,0.8288,0.8282,0.8275,0.8267,0.8258,0.8256,0.8251,0.8248,0.8247,0.8243,0.8239,0.8242,0.8242,0.8242,0.8241,0.8241,0.8241,0.824,0,0,0.8343,0.8328,0.8328,0.8323,0.8312,0.8308,0.8303,0.8295,0.8292,0.8284,0.828,0.8271,0.8267,0.8262,0.8255,0.8253,0.8253,0.8249,0.8248,0.8249,0.8248,0.825,0.825,0.8249,0.8249,0.8249,0.8248,0,0.8347,0.8339,0.8331,0.8326,0.832,0.8311,0.8307,0.8299,0.8293,0.8287,0.8279,0.8273,0.8269,0.8265,0.8262,0.8254,0.8252,0.8254,0.8244,0.8243,0.8246,0.825,0.8253,0.8253,0.8248,0.8248,0.8248,0,0.8351,0.8344,0.8338,0.8326,0.8324,0.832,0.8311,0.8306,0.8296,0.8292,0.8285,0.8278,0.8272,0.8269,0.8259,0.826,0.8255,0.8251,0.825,0.8249,0.8246,0.8248,0.8253,0.8252,0.8247,0.8247,0.8248,0,0.836,0.8349,0.8344,0.8339,0.8326,0.8324,0.8318,0.8308,0.8303,0.8295,0.8292,0.8283,0.8278,0.8271,0.8261,0.826,0.8252,0.8248,0.8247,0.8247,0.8246,0.8246,0.8249,0.8244,0.8244,0.8244,0.8244,0,0.8364,0.8361,0.8347,0.8344,0.8339,0.8329,0.8325,0.8318,0.8309,0.8304,0.8295,0.829,0.8278,0.8271,0.8263,0.8256,0.8254,0.8249,0.8247,0.825,0.825,0.8246,0.8246,0.8244,0.8244,0.8244,0.8244,0,0.8374,0.8365,0.8358,0.8346,0.8342,0.8339,0.8328,0.8324,0.8317,0.831,0.8307,0.8295,0.8287,0.8276,0.8264,0.8259,0.8252,0.8249,0.8255,0.8254,0.8253,0.8253,0.8253,0.8252,0.8248,0.8248,0.8248,0,0.8377,0.8374,0.8361,0.8357,0.8351,0.8345,0.8339,0.8329,0.8324,0.8312,0.8309,0.83,0.8292,0.8278,0.8268,0.8258,0.8254,0.8255,0.8253,0.8255,0.8253,0.8253,0.8253,0.8256,0.8256,0.8256,0.8256,0,0.8384,0.8379,0.8372,0.8363,0.8357,0.835,0.8341,0.8338,0.8326,0.832,0.8311,0.8305,0.8292,0.8283,0.8271,0.8264,0.8258,0.8257,0.8256,0.8258,0.8261,0.8259,0.8256,0.8257,0.8257,0.8257,0.8257,0.8257,0.839,0.8386,0.8376,0.8368,0.8361,0.8353,0.8348,0.834,0.8333,0.8322,0.8316,0.8306,0.8295,0.828,0.8273,0.8265,0.8263,0.8262,0.8261,0.8261,0.8261,0.8263,0.8263,0.8263,0.8263,0.8263,0.8263,0,0.8395,0.8388,0.8381,0.837,0.8363,0.8358,0.8348,0.8343,0.8335,0.8325,0.8317,0.8306,0.8296,0.8285,0.8274,0.827,0.8266,0.8267,0.8267,0.8266,0.8264,0.8266,0.827,0.827,0.827,0.827,0.827,0.827,0.8397,0.839,0.8384,0.8373,0.8366,0.8357,0.8352,0.8344,0.8337,0.8325,0.8317,0.8309,0.8299,0.8287,0.8277,0.8274,0.827,0.8272,0.8268,0.8266,0.8266,0.8265,0.8267,0.8271,0.8271,0.8269,0.8269,0.8269]},{"header":{"parameterUnit":"m.s-1","parameterCategory":1,"la1":30.2991,"la2":30.254,"lo1":-89.0895,"lo2":-89.0444,"dy":0.0017,"dx":0.0017,"nx":28,"ny":28,"refTime":"2024-05-09T09:00:00:Z","depth":0,"parameterNumber":3,"parameterNumberName":"V-component_of_WINDS"},"data":[0,0,0,0,0,0,0,0,0,0,0,0,0,0,0,0,0,0,0,0,0,0,0,0,0,0,0,0,0,0,0,0,0,0,0,0,0,0,0,0,0,0,0,0,0,0,0,0,0,0,0,0,0,0,0,0,0,0,6.8628,6.8629,0,6.8682,6.8682,6.8683,6.8618,6.8616,6.8613,6.8611,6.866,6.8664,6.8667,0,0,0,0,0,0,0,0,0,0,0,0,0,6.8463,6.8466,6.8628,6.8629,6.8629,6.8682,6.8682,6.8683,6.8619,6.8616,6.8613,6.861,6.8659,6.8663,6.8667,0,0,0,0,0,0,0,0,0,0,0,0,0,6.8527,6.8467,6.8628,6.8604,6.8602,6.8681,6.8682,6.8683,6.8619,6.8616,6.8612,6.8609,6.8658,6.8663,6.8668,6.8772,0,0,6.8684,6.8686,0,0,0,0,0,0,0,0,6.8524,6.8533,6.8606,6.8605,6.8604,6.864,6.8642,6.8713,6.862,6.8612,6.8611,6.8607,6.8656,6.8661,6.8679,6.8774,6.8776,6.8685,6.8688,6.869,6.8692,0,0,0,0,0,0,0,6.8519,6.853,6.8649,6.8607,6.8606,6.8588,6.8593,6.8655,6.8653,6.8613,6.8608,6.8616,6.8654,6.8674,6.8679,6.8777,6.8684,6.8689,6.8692,6.8694,6.896,6.8963,0,0,0,0,0,0,6.8518,6.8527,6.8647,6.8651,6.8554,6.8594,6.8599,6.8632,6.8652,6.8652,6.8619,6.8613,6.8667,6.8673,6.8681,6.8803,6.869,6.8695,6.8698,6.8956,6.8961,6.8965,0,0,0,0,0,0,6.8515,6.853,6.8645,6.8588,6.8601,6.86,6.8637,6.8635,6.8654,6.8657,6.8656,6.864,6.8664,6.8673,6.875,6.8804,6.8697,6.8702,6.8951,6.8957,6.8963,6.905,0,0,0,0,0,0,6.8511,6.8529,6.857,6.8589,6.8604,6.8716,6.864,6.8638,6.8664,6.8656,6.8676,6.8676,6.8662,6.8743,6.8755,6.881,6.8706,6.8946,6.8954,6.8961,6.9042,6.9058,6.9072,0,0,0,0,0,6.8505,6.8591,6.8573,6.8587,6.8656,6.8719,6.8727,6.8711,6.8669,6.8709,6.8711,6.8675,6.8797,6.8751,6.8765,6.8821,6.8943,6.8952,6.896,6.9036,6.9055,6.9071,0,0,0,0,0,0,6.8576,6.8593,6.8573,6.8668,6.8693,6.8708,6.8758,6.8732,6.8767,6.8759,6.8735,6.874,6.8822,6.8829,6.8778,6.8923,6.8862,6.8874,6.8915,6.8933,6.8948,6.8944,6.8711,0,0,0,0,0,6.8604,6.8655,6.8666,6.8749,6.8763,6.8759,6.8785,6.8771,6.8795,6.8804,6.8811,6.8834,6.8877,6.8906,6.8945,6.9043,6.9046,6.9089,6.9104,6.9116,6.9126,6.9177,6.9196,6.8993,6.8993,6.8993,0,0,6.8659,6.8675,6.8709,6.8764,6.8782,6.8833,6.8768,6.8825,6.8863,6.8812,6.8885,6.8892,6.8915,6.9003,6.9041,6.9011,6.9183,6.9127,6.9136,6.914,6.9188,6.9207,6.9224,6.8999,6.8998,6.8997,0,0,6.8788,6.8806,6.8877,6.8896,6.8924,6.892,6.8938,6.8957,6.896,6.9033,6.8996,6.9039,6.9114,6.9132,6.9151,6.9287,6.9255,6.93,6.9377,6.9427,6.9443,6.9457,6.9504,6.9521,6.9311,6.9311,6.9311,0,6.8853,6.8932,6.8916,6.8977,6.9001,6.896,6.903,6.9049,6.9088,6.9105,6.9071,6.9164,6.9177,6.9268,6.9301,6.9318,6.9335,6.9297,6.9442,6.9456,6.9469,6.9514,6.9532,6.9316,6.9316,6.9315,6.9314,0,6.901,6.9066,6.9119,6.916,6.9191,6.9256,6.9248,6.928,6.9263,6.9263,6.9338,6.9352,6.9393,6.9414,6.9397,6.9502,6.9483,6.9446,6.9385,6.9494,6.9535,6.9552,6.9324,6.9322,6.932,6.9319,0,0,6.9184,6.9216,6.9236,6.9254,6.9282,6.9323,6.9385,6.9428,6.9456,6.9484,6.9535,6.96,6.9566,6.9588,6.9572,6.9617,6.9722,6.9574,6.9574,6.96,6.9837,6.9864,6.9884,6.9702,6.9705,6.9707,6.9835,0,6.9313,6.9424,6.9411,6.9516,6.9566,6.9527,6.9581,6.9603,6.9605,6.9645,6.9645,6.9691,6.9644,6.9657,6.9699,6.97,6.9769,6.9691,6.9746,6.9749,6.9741,6.9906,6.9935,7.0055,6.9851,6.9854,6.9856,0,6.9477,6.9513,6.9624,6.9644,6.9664,6.9714,6.9752,6.9792,6.9815,6.9813,6.9838,6.9814,6.9875,6.9814,6.9896,6.9843,6.9865,6.9869,6.9873,6.9877,6.9808,6.9913,7.0093,7.011,6.9882,6.988,6.9878,0,6.9592,6.9668,6.9744,6.976,6.9786,6.9821,6.9833,6.9853,6.9879,6.9912,6.9928,6.9967,6.9988,7.0017,7.0004,6.9961,7.0089,7.0026,7.0087,7.0087,7.0114,7.0113,7.0299,7.013,7.013,7.013,7.0129,0,6.9736,6.9804,6.9796,6.9842,6.9918,6.9902,6.9976,6.9983,7.0001,7.0047,7.0015,7.0058,7.0039,7.008,7.007,7.0139,7.0149,7.0147,7.0144,7.015,7.015,7.0163,7.0154,7.0135,7.0133,7.0133,7.0132,0,6.9876,6.9873,6.9954,6.9972,6.9978,7.0033,7.0047,7.0089,7.0089,7.0147,7.0159,7.0157,7.0204,7.0195,7.0246,7.0239,7.0325,7.0312,7.0318,7.0314,7.0375,7.0369,7.0575,7.0601,7.0417,7.0419,7.042,0,6.9968,7.002,7.0045,7.0074,7.0089,7.0137,7.0164,7.015,7.0179,7.021,7.0248,7.0293,7.0327,7.0404,7.0405,7.0444,7.043,7.05,7.0436,7.044,7.043,7.0427,7.0431,7.0512,7.0514,7.0516,7.0517,0,7.013,7.0127,7.0168,7.021,7.0244,7.0276,7.0304,7.0329,7.0316,7.0351,7.0399,7.0427,7.048,7.0523,7.0559,7.0569,7.0541,7.0538,7.0554,7.056,7.0561,7.056,7.0352,7.0533,7.0531,7.053,7.0529,7.0529,7.0248,7.0293,7.0318,7.0365,7.0385,7.0412,7.0453,7.0458,7.0499,7.0543,7.0531,7.0586,7.0606,7.0652,7.0666,7.0707,7.0681,7.0704,7.071,7.0716,7.0723,7.0556,7.0714,7.0713,7.0713,7.0713,7.0712,0,7.0408,7.0423,7.0467,7.0508,7.0545,7.0518,7.0547,7.0579,7.0629,7.0651,7.0687,7.0742,7.0785,7.079,7.083,7.0862,7.085,7.0873,7.0869,7.0872,7.0744,7.0726,7.0882,7.0882,7.0882,7.0882,7.0881,7.0881,7.0496,7.057,7.0569,7.0652,7.0665,7.072,7.0739,7.0763,7.0781,7.0846,7.0881,7.0886,7.0901,7.0941,7.0979,7.0979,7.0994,7.1022,7.1017,7.0898,7.0881,7.0865,7.0848,7.1026,7.1026,7.1141,7.1142,7.1143]}]]